FW0151 Weather Reports


time (UTC)temp
C
wind
direction
speed
KPH
gust
KPH
rain 1hr
cm
rain 24hr
cm
rain mn
cm
humidity
%
barometer
mb
20260505041517 11 23 8.0 16.1 0.00 0.03 0.00 86 1011.6
20260505040517 11 0 6.4 14.5 0.00 0.03 0.00 86 1011.7
20260505035517 11 0 8.0 14.5 0.00 0.03 0.00 87 1011.8
20260505034538 11 23 8.0 14.5 0.00 0.03 0.00 87 1011.9
20260505033518 11 23 4.8 9.7 0.00 0.03 0.00 87 1011.9
20260505032519 11 23 6.4 14.5 0.00 0.03 0.00 87 1012.0
20260505031537 11 23 8.0 12.9 0.00 0.03 0.00 87 1012.0
20260505030517 11 45 6.4 11.3 0.00 0.03 0.00 88 1012.0
20260505025517 11 23 9.7 16.1 0.00 0.03 0.00 88 1012.1
20260505024517 11 23 6.4 9.7 0.00 0.03 0.00 88 1012.2
20260505023517 11 23 8.0 16.1 0.00 0.03 0.00 89 1012.1
20260505022539 11 23 8.0 16.1 0.00 0.03 0.00 89 1012.1
20260505021519 11 23 4.8 11.3 0.00 0.03 0.00 90 1012.1
20260505020517 11 23 4.8 11.3 0.00 0.03 0.00 90 1012.1
20260505015518 11 23 8.0 16.1 0.00 0.03 0.00 90 1012.0
20260505014517 11 23 9.7 17.7 0.00 0.03 0.00 91 1011.9
20260505013518 11 23 11.3 20.9 0.00 0.03 0.00 91 1012.0
20260505012517 11 23 9.7 17.7 0.00 0.03 0.00 91 1012.1
20260505011517 11 23 8.0 16.1 0.00 0.03 0.00 90 1012.0
20260505010520 11 23 6.4 12.9 0.00 0.03 0.00 90 1012.0
20260505005518 11 23 6.4 12.9 0.00 0.03 0.00 90 1012.1
20260505004540 11 23 8.0 17.7 0.00 0.03 0.00 89 1012.1
20260505003519 11 23 9.7 20.9 0.00 0.03 0.00 89 1012.3
20260505002519 11 23 12.9 20.9 0.00 0.03 0.00 89 1012.4
20260505001537 11 23 4.8 11.3 0.00 0.03 0.00 89 1012.5
20260505000538 11 23 9.7 19.3 0.00 0.03 0.00 89 1012.8
20260504235517 11 23 8.0 16.1 0.00 0.03 0.00 89 1012.9
20260504234517 11 23 9.7 16.1 0.00 0.03 0.00 88 1013.0
20260504233517 11 23 9.7 16.1 0.00 0.03 0.00 89 1013.1
20260504232517 11 23 8.0 19.3 0.00 0.03 0.00 89 1013.1
20260504231517 11 23 9.7 16.1 0.00 0.03 0.00 89 1013.1
20260504230521 11 23 3.2 8.0 0.00 0.03 0.00 90 1013.2
20260504225543 11 23 12.9 20.9 0.00 0.03 0.00 89 1013.1
20260504224519 11 23 9.7 22.5 0.00 0.03 0.00 90 1013.1
20260504223538 11 0 9.7 19.3 0.00 0.03 0.00 89 1013.0
20260504222518 11 23 6.4 14.5 0.00 0.03 0.00 90 1013.0
20260504221518 11 23 12.9 19.3 0.00 0.03 0.00 89 1013.1
20260504220517 11 23 6.4 12.9 0.00 0.03 0.00 90 1013.2
20260504215537 11 23 8.0 12.9 0.00 0.03 0.03 89 1013.2
20260504214517 11 23 11.3 17.7 0.00 0.03 0.03 89 1013.2
20260504213517 11 23 9.7 19.3 0.00 0.03 0.03 89 1013.3
20260504212517 11 23 9.7 16.1 0.00 0.03 0.03 89 1013.5
20260504211517 11 23 8.0 17.7 0.00 0.03 0.03 89 1013.5
20260504210518 11 23 6.4 12.9 0.00 0.03 0.03 89 1013.6
20260504205517 11 23 8.0 14.5 0.00 0.03 0.03 89 1013.7
20260504204520 11 23 9.7 19.3 0.00 0.03 0.03 89 1013.7
20260504203517 11 23 8.0 12.9 0.00 0.03 0.03 90 1013.7
20260504202519 11 23 9.7 16.1 0.00 0.03 0.03 90 1013.6
20260504201520 11 23 9.7 17.7 0.00 0.03 0.03 89 1013.6
20260504200518 11 0 6.4 12.9 0.00 0.03 0.03 90 1013.4
20260504195517 11 23 8.0 14.5 0.00 0.03 0.03 90 1013.4
20260504194517 11 23 9.7 17.7 0.00 0.03 0.03 90 1013.2
20260504193518 11 23 11.3 19.3 0.00 0.03 0.03 89 1013.2
20260504192519 12 45 9.7 16.1 0.00 0.03 0.03 89 1013.1
20260504191520 12 23 8.0 14.5 0.00 0.03 0.03 90 1013.0
20260504190517 12 23 9.7 14.5 0.00 0.03 0.03 90 1012.9
20260504185518 12 23 12.9 20.9 0.00 0.03 0.03 90 1012.7
20260504184517 12 23 14.5 24.1 0.00 0.03 0.03 90 1012.7
20260504183517 12 23 11.3 19.3 0.00 0.03 0.03 90 1012.7
20260504182517 12 23 12.9 22.5 0.00 0.03 0.03 90 1012.6
20260504181538 12 0 8.0 17.7 0.00 0.03 0.03 91 1012.5
20260504180517 12 23 12.9 20.9 0.00 0.03 0.03 91 1012.4
20260504175517 12 23 6.4 14.5 0.00 0.03 0.03 91 1012.5
20260504174517 12 23 6.4 16.1 0.00 0.03 0.03 90 1012.7
20260504173517 12 0 4.8 14.5 0.00 0.03 0.03 90 1012.6
20260504172539 12 23 6.4 14.5 0.00 0.03 0.03 90 1012.5
20260504171602 12 0.0 0.0 0.00 0.03 0.03 90 1012.6
20260504170518 12 23 1.6 9.7 0.00 0.03 0.03 90 1012.5
20260504150611 17 338 6.4 14.5 0.00 0.05 0.03 81 1012.0
20260504140517 17 0 1.6 11.3 0.00 0.08 0.03 78 1012.4
20260504130518 17 0.0 0.0 0.00 0.08 0.03 79 1012.7
20260504110517 17 0.0 0.0 0.00 0.08 0.03 80 1013.1
20260504100517 16 0.0 0.0 0.00 0.08 0.03 82 1013.1
20260504081541 14 0.0 0.0 0.03 0.08 0.03 89 1013.0
20260504080520 13 0.0 0.0 0.03 0.08 0.03 89 1013.1
20260504050517 9 0.0 0.0 0.00 0.38 0.00 95 1011.5
20260504045518 9 0.0 0.0 0.00 0.38 0.00 95 1011.5